Weather History for Dallas Addison, TX

Change the Weather History Date:

Monday, November 5, 2012

  Actual Average Record
Temperature  
Mean Temperature 64 °F -  
Max Temperature 75 °F 66 °F 86 °F (2005)
Min Temperature 53 °F 50 °F 41 °F (2010)
Degree Days  
Heating Degree Days 1    
Growing Degree Days 14 (Base 50)    
Moisture  
Dew Point 44 °F    
Average Humidity 61    
Maximum Humidity 100    
Minimum Humidity 22    
Precipitation  
Precipitation 0.00 in - - ()
Sea Level Pressure  
Sea Level Pressure 30.07 in    
Wind  
Wind Speed 4 mph (North)    
Max Wind Speed 17 mph    
Max Gust Speed 25 mph    
Visibility 10 miles    
Events Fog    
Averages and records for this station are not official NWS values.
T = Trace of Precipitation, MM = Missing Value Source: NWS Daily Summary

Daily Weather History Graph

Daily Weather History Graph

Search for Another Location

Airport:

Trip Planner

Search our weather history database for the weather conditions in past years. The results will help you decide how hot, cold, wet, or windy it might be!

Date:

Astronomy

Nov. 05, 2012 Rise Set
Actual Time 6:49 AM CST 5:32 PM CST
Civil Twilight 6:23 AM CST 5:57 PM CST
Nautical Twilight 5:54 AM CST 6:27 PM CST
Astronomical Twilight 5:25 AM CST 6:56 PM CST
Moon 11:10 PM CST (11/5) 12:08 PM CST (11/5)
Length of Visible Light 11h 34m
Length of Day
10h 42m
Waning Gibbous, 62% of the Moon is Illuminated
Nov 5
Waning Gibbous
Nov 6
Last Quarter
Nov 13
New
Nov 20
First Quarter
Nov 28
Full

Hourly Weather History & Observations

Time (CST) Temp. Dew Point Humidity Pressure Visibility Wind Dir Wind Speed Gust Speed Precip Events Conditions
12:15 AM 59.0 °F 51.8 °F 77% 30.08 in 10.0 mi Calm Calm - N/A   Clear
12:35 AM 57.2 °F 51.8 °F 82% 30.07 in 10.0 mi ESE 3.5 mph - N/A   Clear
12:55 AM 59.0 °F 53.6 °F 82% 30.07 in 10.0 mi ESE 3.5 mph - N/A   Clear
1:15 AM 59.0 °F 53.6 °F 82% 30.07 in 10.0 mi ESE 3.5 mph - N/A   Clear
1:35 AM 59.0 °F 55.4 °F 88% 30.07 in 10.0 mi Calm Calm - N/A   Clear
1:55 AM 59.0 °F 57.2 °F 94% 30.07 in 10.0 mi Calm Calm - N/A   Clear
2:15 AM 57.2 °F 57.2 °F 100% 30.06 in 10.0 mi ENE 3.5 mph - N/A   Clear
2:35 AM 57.2 °F 57.2 °F 100% 30.06 in 10.0 mi Calm Calm - N/A   Clear
2:55 AM 57.2 °F 57.2 °F 100% 30.06 in 10.0 mi Calm Calm - N/A   Clear
3:15 AM 55.4 °F 55.4 °F 100% 30.05 in 10.0 mi Calm Calm - N/A   Clear
3:35 AM 55.4 °F 55.4 °F 100% 30.05 in 7.0 mi Calm Calm - N/A   Clear
3:55 AM 57.2 °F 57.2 °F 100% 30.05 in 7.0 mi Calm Calm - N/A   Clear
4:15 AM 57.2 °F 57.2 °F 100% 30.04 in 7.0 mi ESE 3.5 mph - N/A   Clear
4:35 AM 55.4 °F 55.4 °F 100% 30.05 in 7.0 mi Calm Calm - N/A   Clear
4:55 AM 55.4 °F 55.4 °F 100% 30.05 in 7.0 mi Calm Calm - N/A   Clear
5:47 AM 55.4 °F 51.8 °F 88% 30.06 in 1.0 mi Calm Calm - N/A Fog Fog
6:47 AM 53.6 °F 51.8 °F 94% 30.06 in 4.0 mi Calm Calm - N/A Fog Fog
7:47 AM 55.4 °F 53.6 °F 94% 30.06 in 4.0 mi Calm Calm - N/A   Scattered Clouds
8:49 AM 60.8 °F 55.4 °F 82% 30.08 in 7.0 mi Calm Calm - N/A   Partly Cloudy
9:47 AM 66.2 °F 50.0 °F 56% 30.07 in 10.0 mi NNW 9.2 mph - N/A   Scattered Clouds
10:47 AM 68.0 °F 44.6 °F 43% 30.09 in 10.0 mi NNW 12.7 mph 21.9 mph N/A   Scattered Clouds
11:47 AM 73.4 °F 39.2 °F 29% 30.07 in 10.0 mi NNW 10.4 mph 17.3 mph N/A   Partly Cloudy
12:50 PM 73.4 °F 39.2 °F 29% 30.04 in 13.0 mi NNW 13.8 mph - N/A   Partly Cloudy
1:49 PM 75.2 °F 37.4 °F 25% 30.03 in 15.0 mi WNW 15.0 mph 20.7 mph N/A   Clear
2:47 PM 75.2 °F 37.4 °F 25% 30.02 in 13.0 mi NNW 13.8 mph 24.2 mph N/A   Partly Cloudy
3:53 PM 73.4 °F 37.4 °F 27% 30.03 in 15.0 mi NW 13.8 mph 23.0 mph N/A   Partly Cloudy
4:47 PM 71.6 °F 30.2 °F 22% 30.03 in 15.0 mi NNW 17.3 mph 25.3 mph N/A   Partly Cloudy
5:48 PM 68.0 °F 30.2 °F 24% 30.04 in 15.0 mi NNW 10.4 mph 18.4 mph N/A   Partly Cloudy
6:47 PM 66.2 °F 28.4 °F 24% 30.06 in 15.0 mi NNW 13.8 mph 20.7 mph N/A   Clear
7:47 PM 62.6 °F 26.6 °F 26% 30.08 in 15.0 mi North 11.5 mph - N/A   Clear
8:47 PM 60.8 °F 30.2 °F 31% 30.09 in 13.0 mi North 6.9 mph - N/A   Clear
9:15 PM 59.0 °F 30.2 °F 34% 30.10 in 10.0 mi North 6.9 mph - N/A   Clear
9:35 PM 59.0 °F 30.2 °F 34% 30.10 in 10.0 mi North 9.2 mph - N/A   Clear
9:50 PM 59.0 °F 32.0 °F 36% 30.11 in 13.0 mi North 10.4 mph 13.8 mph N/A   Clear
9:55 PM 59.0 °F 32.0 °F 36% 30.11 in 10.0 mi North 8.1 mph - N/A   Clear
10:15 PM 57.2 °F 32.0 °F 38% 30.11 in 10.0 mi North 6.9 mph - N/A   Clear
10:35 PM 57.2 °F 32.0 °F 38% 30.11 in 10.0 mi North 8.1 mph - N/A   Clear
10:55 PM 55.4 °F 32.0 °F 41% 30.12 in 10.0 mi North 6.9 mph - N/A   Clear
11:15 PM 55.4 °F 32.0 °F 41% 30.12 in 10.0 mi NNE 4.6 mph - N/A   Clear
11:35 PM 55.4 °F 33.8 °F 44% 30.11 in 10.0 mi NNE 4.6 mph - N/A   Clear
11:55 PM 53.6 °F 33.8 °F 47% 30.12 in 10.0 mi NNE 4.6 mph - N/A   Clear